Location: Unspecified
(34.2590°N, 0.0000°E)
Time: 03:48:43
(UTC+00:00)

Envisat - Visible Passes

Search period start: 04 April 2026 00:00
Search period end: 14 April 2026 00:00
Orbit: 761 x 763 km, 98.4° (Epoch: 29 March)

Date Brightness Start Highest point End Pass type
(mag) Time Alt. Az. Time Alt. Az. Time Alt. Az.
4 Apr 5.8 01:46:35 10° NE 01:47:12 13° NE 01:47:12 13° NE visible
4 Apr 4.8 03:25:20 10° N 03:27:20 20° NNW 03:27:20 20° NNW visible
5 Apr 4.7 02:47:00 10° N 02:49:12 26° N 02:49:12 26° N visible
6 Apr 5.3 02:09:22 10° NNE 02:11:03 20° NE 02:11:03 20° NE visible
6 Apr 4.9 03:49:30 10° NNW 03:51:11 15° NW 03:51:11 15° NW visible
7 Apr 5.9 01:32:42 10° NE 01:32:55 11° NE 01:32:55 11° NE visible
7 Apr 4.5 03:10:34 10° N 03:13:03 26° NNW 03:13:03 26° NNW visible
8 Apr 4.7 02:32:30 10° NNE 02:34:54 29° NNE 02:34:54 29° NNE visible
9 Apr 5.4 01:55:10 10° NNE 01:56:45 19° NE 01:56:45 19° NE visible
9 Apr 4.6 03:34:26 10° NNW 03:36:54 21° NW 03:36:54 21° NW visible
10 Apr 4.2 02:55:54 10° N 02:58:45 33° NNW 02:58:45 33° NNW visible
11 Apr 4.7 02:18:06 10° NNE 02:20:36 29° NNE 02:20:36 29° NNE visible
11 Apr 4.9 03:58:54 10° NW 04:00:44 14° NW 04:00:44 14° NW visible
12 Apr 5.6 01:41:07 10° NE 01:42:27 16° NE 01:42:27 16° NE visible
12 Apr 4.3 03:19:33 10° N 03:22:35 28° NW 03:22:35 28° NW visible
13 Apr 4.1 02:41:20 10° N 02:44:26 38° N 02:44:26 38° N visible
